Flag for Guinea Weather past 2 weeks in Boké, Guinea

Now
86 °F

Haze.


Feels Like: 95 °F
Forecast: N/A
Wind: 9 mph from South

Location: Conakry / Gbessia

Current Time: Jan 29, 2015 at 3:26:48 PM

Latest Report: Jan 29, 2015 at 2:00 PM


Visibility: 3 mi

Pressure: 29.86 "Hg

Humidity: 70%

Dew point: 75 °F

Location of BokéLocation

Historic Weather in Boké — Graph

°F

Boké temperature yesterday

Maximum temperature yesterday: 95 °F (at 2:00 PM)
Minimum temperature yesterday: 75 °F (at 7:00 AM)
Average temperature yesterday: 83 °F

Past Weeks' High & Low Weather Summary

 TemperatureHumidityPressure
High95 °F (Jan 28, 2:00 PM)100% (Jan 18, 4:00 AM)29.98 "Hg (Jan 18, 4:00 AM)
Low68 °F (Jan 15, 8:00 AM)18% (Jan 28, 2:00 PM)29.77 "Hg (Jan 24, 4:00 PM)
Average81 °F77%29.89 "Hg
* Reported Jan 14 2:00 PM — Jan 29 2:00 PM, Boké, Weather by CustomWeather, © 2014

Note: Actual official high and low records may vary slightly from our data, if they occured in-between our weather recording intervals... More about our weather records

Advertising

Boké weather history for previous 24 hours

 ConditionsComfort  
Time TempWeatherWind HumidityBarometerVisibility
2:00 PM
Jan 29
86 °FHaze.9 mph70%29.86 "Hg3 mi
1:00 PM84 °FScattered clouds.9 mph74%29.89 "Hg3 mi
12:00 PM84 °FFog.9 mph70%29.89 "Hg3 mi
11:00 AM84 °FFog.7 mph70%29.92 "Hg3 mi
10:00 AM79 °FFog.5 mph79%29.92 "Hg2 mi
9:00 AM77 °FFog.5 mph83%29.89 "Hg2 mi
8:00 AM73 °FFog.5 mph100%29.89 "Hg1 mi
7:00 AM73 °FPassing clouds.5 mph100%29.86 "HgN/A
6:00 AM75 °FPassing clouds.5 mph94%29.83 "HgN/A
5:00 AM75 °FPassing clouds.No wind94%29.83 "HgN/A
4:00 AM77 °FPassing clouds.2 mph94%29.83 "HgN/A
3:00 AM77 °FPassing clouds.2 mph94%29.83 "HgN/A
2:00 AM77 °FPassing clouds.2 mph94%29.86 "HgN/A
1:00 AM79 °FPassing clouds.7 mph89%29.89 "HgN/A
12:00 AM79 °FPassing clouds.7 mph89%29.89 "HgN/A
11:00 PM
Jan 28
81 °FPassing clouds.7 mph84%29.89 "HgN/A
10:00 PM81 °FPassing clouds.5 mph89%29.89 "HgN/A
7:00 PM82 °FHaze.7 mph74%29.80 "Hg3 mi
6:00 PM86 °FHaze.9 mph62%29.80 "Hg3 mi
5:00 PM88 °FHaze.12 mph59%29.77 "Hg3 mi
4:00 PM91 °FHaze.14 mph36%29.77 "Hg3 mi
3:00 PM95 °FScattered clouds.7 mph18%29.83 "Hg3 mi
Weather by CustomWeather, © 2014

See weather overviewHow to use our weather pages